Terminal Aerodrome Forecast
Issued by NWS

Home | Current Version | Previous Version | Text Only | Print | Product List | Glossary On
Versions: 1 2 3 4 5 6 7 8 9 10 11 12 13 14 15 16 17 18 19 20 21 22 23 24 25 26 27 28
000
FTUS44 KOUN 230520
TAFLAW
TAF
KLAW 230520Z 2306/2406 12006KT P6SM SCT120
     FM231200 15010KT P6SM SCT120 BKN250
     FM231900 17009G17KT P6SM SCT250
     FM240000 14009KT P6SM SCT250=

USA.gov is the U.S. government's official web portal to all federal, state and local government web resources and services.